contact:dominique.lefevre@mio.osupytheas.fr, maurice.libes@osupytheas.fr, didier.mallarino@osupytheas.fr
Project:EMSO http://www.emso-fr.org/EMSO-France
Depth: 2436.0 m
Title:EMSO Ligure Ouest : Data MII capteur MICROCAT
DateTime_Computer,Latitude,Longitude,Temperature,Conductivity,Pressure,DateTime_Instrument
DateTime_Computer,Latitude,Longitude,degC,S m-1,dbar,DateTime_Instrument
2020-08-20T00:00:54Z,42.805,6.029,13.2976,4.59975,2470.087,2020-8-20T02:01:44Z
2020-08-20T00:03:57Z,42.805,6.029,13.2976,4.59976,2470.1,2020-8-20T02:04:47Z
2020-08-20T00:07:01Z,42.805,6.029,13.2977,4.59975,2470.087,2020-8-20T02:07:50Z
2020-08-20T00:10:04Z,42.805,6.029,13.2971,4.59976,2470.077,2020-8-20T02:10:53Z
2020-08-20T00:13:07Z,42.805,6.029,13.2975,4.59975,2470.1,2020-8-20T02:13:57Z
2020-08-20T00:16:10Z,42.805,6.029,13.2974,4.59976,2470.087,2020-8-20T02:17:00Z
2020-08-20T00:19:13Z,42.805,6.029,13.2973,4.59975,2470.077,2020-8-20T02:20:03Z
2020-08-20T00:22:17Z,42.805,6.029,13.2973,4.59975,2470.087,2020-8-20T02:23:06Z
2020-08-20T00:25:20Z,42.805,6.029,13.2972,4.59976,2470.063,2020-8-20T02:26:10Z
2020-08-20T00:28:23Z,42.805,6.029,13.2972,4.59975,2470.04,2020-8-20T02:29:13Z
2020-08-20T00:31:27Z,42.805,6.029,13.2975,4.59974,2470.1,2020-8-20T02:32:16Z
2020-08-20T00:34:30Z,42.805,6.029,13.2972,4.59975,2470.077,2020-8-20T02:35:19Z
2020-08-20T00:37:33Z,42.805,6.029,13.2976,4.59974,2470.063,2020-8-20T02:38:23Z
2020-08-20T00:40:36Z,42.805,6.029,13.2975,4.59973,2470.053,2020-8-20T02:41:26Z
2020-08-20T00:43:40Z,42.805,6.029,13.2974,4.59974,2470.049,2020-8-20T02:44:29Z
2020-08-20T00:46:43Z,42.805,6.029,13.2975,4.59976,2470.053,2020-8-20T02:47:33Z
2020-08-20T00:49:46Z,42.805,6.029,13.2974,4.59974,2470.04,2020-8-20T02:50:36Z
2020-08-20T00:52:50Z,42.805,6.029,13.2975,4.59974,2470.063,2020-8-20T02:53:39Z
2020-08-20T00:55:53Z,42.805,6.029,13.2973,4.59975,2470.04,2020-8-20T02:56:42Z
2020-08-20T00:58:56Z,42.805,6.029,13.2974,4.59975,2470.017,2020-8-20T02:59:46Z
2020-08-20T01:01:59Z,42.805,6.029,13.2974,4.59973,2470.063,2020-8-20T03:02:49Z
2020-08-20T01:05:02Z,42.805,6.029,13.2974,4.59975,2470.04,2020-8-20T03:05:52Z
2020-08-20T01:08:06Z,42.805,6.029,13.2979,4.59975,2470.03,2020-8-20T03:08:55Z
2020-08-20T01:11:09Z,42.805,6.029,13.2974,4.59974,2470.053,2020-8-20T03:11:59Z
2020-08-20T01:14:12Z,42.805,6.029,13.2974,4.59974,2470.063,2020-8-20T03:15:02Z
2020-08-20T01:17:16Z,42.805,6.029,13.2974,4.59974,2470.03,2020-8-20T03:18:05Z
2020-08-20T01:20:19Z,42.805,6.029,13.2976,4.59974,2470.053,2020-8-20T03:21:08Z
2020-08-20T01:23:22Z,42.805,6.029,13.2973,4.59976,2470.053,2020-8-20T03:24:12Z
2020-08-20T01:26:25Z,42.805,6.029,13.2971,4.59974,2469.993,2020-8-20T03:27:15Z
2020-08-20T01:29:29Z,42.805,6.029,13.2973,4.59975,2470.03,2020-8-20T03:30:18Z
2020-08-20T01:32:32Z,42.805,6.029,13.2974,4.59976,2470.03,2020-8-20T03:33:21Z
2020-08-20T01:35:35Z,42.805,6.029,13.2974,4.59974,2469.993,2020-8-20T03:36:25Z
2020-08-20T01:38:38Z,42.805,6.029,13.2971,4.59975,2470.017,2020-8-20T03:39:28Z
2020-08-20T01:41:42Z,42.805,6.029,13.2977,4.59976,2469.993,2020-8-20T03:42:31Z
2020-08-20T01:44:45Z,42.805,6.029,13.2976,4.59975,2470.017,2020-8-20T03:45:34Z
2020-08-20T01:47:48Z,42.805,6.029,13.2972,4.59975,2470.017,2020-8-20T03:48:38Z
2020-08-20T01:50:51Z,42.805,6.029,13.2974,4.59973,2470.04,2020-8-20T03:51:41Z
2020-08-20T01:53:54Z,42.805,6.029,13.2974,4.59975,2469.993,2020-8-20T03:54:44Z
2020-08-20T01:56:58Z,42.805,6.029,13.2973,4.59975,2469.993,2020-8-20T03:57:47Z
2020-08-20T02:00:01Z,42.805,6.029,13.2972,4.59976,2470.03,2020-8-20T04:00:51Z
2020-08-20T02:03:04Z,42.805,6.029,13.2975,4.59976,2470.007,2020-8-20T04:03:54Z
2020-08-20T02:06:07Z,42.805,6.029,13.2975,4.59974,2469.984,2020-8-20T04:06:57Z
2020-08-20T02:09:11Z,42.805,6.029,13.2976,4.59978,2470.017,2020-8-20T04:10:00Z
2020-08-20T02:12:14Z,42.805,6.029,13.2973,4.59976,2470.017,2020-8-20T04:13:03Z
2020-08-20T02:15:17Z,42.805,6.029,13.2975,4.59974,2469.993,2020-8-20T04:16:07Z
2020-08-20T02:18:21Z,42.805,6.029,13.2976,4.59976,2469.984,2020-8-20T04:19:10Z
2020-08-20T02:21:24Z,42.805,6.029,13.2974,4.59977,2469.993,2020-8-20T04:22:13Z
2020-08-20T02:24:27Z,42.805,6.029,13.2974,4.59976,2469.993,2020-8-20T04:25:17Z
2020-08-20T02:27:30Z,42.805,6.029,13.2973,4.59975,2469.984,2020-8-20T04:28:20Z
2020-08-20T02:30:34Z,42.805,6.029,13.2977,4.59976,2470.007,2020-8-20T04:31:23Z
2020-08-20T02:33:37Z,42.805,6.029,13.2976,4.59975,2469.993,2020-8-20T04:34:26Z
2020-08-20T02:36:40Z,42.805,6.029,13.2974,4.59976,2470.017,2020-8-20T04:37:30Z
2020-08-20T02:39:43Z,42.805,6.029,13.2974,4.59975,2469.984,2020-8-20T04:40:33Z
2020-08-20T02:42:47Z,42.805,6.029,13.2974,4.59976,2470.017,2020-8-20T04:43:36Z
2020-08-20T02:45:50Z,42.805,6.029,13.2975,4.59976,2469.984,2020-8-20T04:46:39Z
2020-08-20T02:48:53Z,42.805,6.029,13.2976,4.59975,2469.984,2020-8-20T04:49:43Z
2020-08-20T02:51:56Z,42.805,6.029,13.2974,4.59977,2469.993,2020-8-20T04:52:46Z
2020-08-20T02:55:00Z,42.805,6.029,13.2974,4.59976,2469.97,2020-8-20T04:55:49Z
2020-08-20T02:58:03Z,42.805,6.029,13.2972,4.59975,2469.97,2020-8-20T04:58:52Z
2020-08-20T03:01:06Z,42.805,6.029,13.2979,4.59976,2469.97,2020-8-20T05:01:55Z
2020-08-20T03:04:09Z,42.805,6.029,13.2974,4.59975,2469.97,2020-8-20T05:04:59Z
2020-08-20T03:07:13Z,42.805,6.029,13.2973,4.59975,2469.993,2020-8-20T05:08:02Z
2020-08-20T03:10:16Z,42.805,6.029,13.2974,4.59975,2469.97,2020-8-20T05:11:05Z
2020-08-20T03:13:19Z,42.805,6.029,13.2976,4.59976,2469.97,2020-8-20T05:14:09Z
2020-08-20T03:16:22Z,42.805,6.029,13.2973,4.59975,2469.993,2020-8-20T05:17:12Z
2020-08-20T03:19:26Z,42.805,6.029,13.2974,4.59975,2469.956,2020-8-20T05:20:15Z
2020-08-20T03:22:29Z,42.805,6.029,13.2977,4.59975,2469.984,2020-8-20T05:23:18Z
2020-08-20T03:25:32Z,42.805,6.029,13.2974,4.59977,2470.007,2020-8-20T05:26:22Z
2020-08-20T03:28:35Z,42.805,6.029,13.2976,4.59976,2470.03,2020-8-20T05:29:25Z
2020-08-20T03:31:39Z,42.805,6.029,13.2969,4.59975,2470.007,2020-8-20T05:32:28Z
2020-08-20T03:34:42Z,42.805,6.029,13.2975,4.59974,2469.993,2020-8-20T05:35:31Z
2020-08-20T03:37:45Z,42.805,6.029,13.2971,4.59976,2469.984,2020-8-20T05:38:35Z
2020-08-20T03:40:49Z,42.805,6.029,13.2971,4.59975,2470.03,2020-8-20T05:41:38Z
2020-08-20T03:43:52Z,42.805,6.029,13.2973,4.59973,2470.007,2020-8-20T05:44:41Z
2020-08-20T03:46:55Z,42.805,6.029,13.2974,4.59974,2469.993,2020-8-20T05:47:45Z
2020-08-20T03:49:58Z,42.805,6.029,13.2973,4.59974,2470.017,2020-8-20T05:50:48Z
2020-08-20T03:53:02Z,42.805,6.029,13.2972,4.59974,2470.03,2020-8-20T05:53:51Z
2020-08-20T03:56:05Z,42.805,6.029,13.2974,4.59973,2470.017,2020-8-20T05:56:54Z
2020-08-20T03:59:08Z,42.805,6.029,13.2974,4.59974,2470.017,2020-8-20T05:59:58Z
2020-08-20T04:02:11Z,42.805,6.029,13.2974,4.59975,2469.993,2020-8-20T06:03:01Z
2020-08-20T04:05:15Z,42.805,6.029,13.2972,4.59975,2469.993,2020-8-20T06:06:04Z
2020-08-20T04:08:18Z,42.805,6.029,13.2976,4.59975,2470.017,2020-8-20T06:09:08Z
2020-08-20T04:11:21Z,42.805,6.029,13.2973,4.59974,2469.97,2020-8-20T06:12:11Z
2020-08-20T04:14:24Z,42.805,6.029,13.2971,4.59975,2470.017,2020-8-20T06:15:14Z
2020-08-20T04:17:28Z,42.805,6.029,13.2975,4.59976,2470.04,2020-8-20T06:18:17Z
2020-08-20T04:20:31Z,42.805,6.029,13.2971,4.59974,2470.04,2020-8-20T06:21:20Z
2020-08-20T04:23:34Z,42.805,6.029,13.2974,4.59976,2470.017,2020-8-20T06:24:24Z
2020-08-20T04:26:37Z,42.805,6.029,13.2969,4.59976,2470.04,2020-8-20T06:27:27Z
2020-08-20T04:29:41Z,42.805,6.029,13.2970,4.59976,2470.017,2020-8-20T06:30:30Z
2020-08-20T04:32:44Z,42.805,6.029,13.2975,4.59974,2469.993,2020-8-20T06:33:33Z
2020-08-20T04:35:47Z,42.805,6.029,13.2974,4.59973,2470.1,2020-8-20T06:36:37Z
2020-08-20T04:38:50Z,42.805,6.029,13.2976,4.59975,2470.053,2020-8-20T06:39:40Z
2020-08-20T04:41:54Z,42.805,6.029,13.2972,4.59975,2470.03,2020-8-20T06:42:43Z
2020-08-20T04:44:57Z,42.805,6.029,13.2974,4.59974,2470.017,2020-8-20T06:45:46Z
2020-08-20T04:48:00Z,42.805,6.029,13.2972,4.59976,2470.04,2020-8-20T06:48:50Z
2020-08-20T04:51:03Z,42.805,6.029,13.2975,4.59977,2470.063,2020-8-20T06:51:53Z
2020-08-20T04:54:07Z,42.805,6.029,13.2969,4.59973,2470.053,2020-8-20T06:54:56Z
2020-08-20T04:57:10Z,42.805,6.029,13.2972,4.59974,2470.053,2020-8-20T06:58:00Z
2020-08-20T05:00:13Z,42.805,6.029,13.2974,4.59974,2470.063,2020-8-20T07:01:03Z
2020-08-20T05:03:16Z,42.805,6.029,13.2971,4.59974,2470.077,2020-8-20T07:04:06Z
2020-08-20T05:06:20Z,42.805,6.029,13.2977,4.59975,2470.053,2020-8-20T07:07:09Z
2020-08-20T05:09:23Z,42.805,6.029,13.2975,4.59974,2470.077,2020-8-20T07:10:12Z
2020-08-20T05:12:26Z,42.805,6.029,13.2973,4.59974,2470.04,2020-8-20T07:13:16Z
2020-08-20T05:15:30Z,42.805,6.029,13.2976,4.59975,2470.063,2020-8-20T07:16:19Z
2020-08-20T05:18:33Z,42.805,6.029,13.2976,4.59975,2470.077,2020-8-20T07:19:22Z
2020-08-20T05:21:36Z,42.805,6.029,13.2972,4.59974,2470.063,2020-8-20T07:22:26Z
2020-08-20T05:24:39Z,42.805,6.029,13.2974,4.59975,2470.087,2020-8-20T07:25:29Z
2020-08-20T05:27:42Z,42.805,6.029,13.2973,4.59975,2470.063,2020-8-20T07:28:32Z
2020-08-20T05:30:46Z,42.805,6.029,13.2978,4.59976,2470.04,2020-8-20T07:31:35Z
2020-08-20T05:33:49Z,42.805,6.029,13.2973,4.59976,2470.1,2020-8-20T07:34:39Z
2020-08-20T05:36:52Z,42.805,6.029,13.2974,4.59974,2470.087,2020-8-20T07:37:42Z
2020-08-20T05:39:56Z,42.805,6.029,13.2973,4.59974,2470.11,2020-8-20T07:40:45Z
2020-08-20T05:42:59Z,42.805,6.029,13.2972,4.59976,2470.087,2020-8-20T07:43:49Z
2020-08-20T05:46:02Z,42.805,6.029,13.2975,4.59975,2470.1,2020-8-20T07:46:52Z
2020-08-20T05:49:06Z,42.805,6.029,13.2974,4.59973,2470.1,2020-8-20T07:49:55Z
2020-08-20T05:52:09Z,42.805,6.029,13.2976,4.59974,2470.063,2020-8-20T07:52:58Z
2020-08-20T05:55:12Z,42.805,6.029,13.2971,4.59973,2470.124,2020-8-20T07:56:02Z
2020-08-20T05:58:15Z,42.805,6.029,13.2974,4.59974,2470.124,2020-8-20T07:59:05Z
2020-08-20T06:01:19Z,42.805,6.029,13.2976,4.59975,2470.133,2020-8-20T08:02:08Z
2020-08-20T06:04:22Z,42.805,6.029,13.2973,4.59975,2470.124,2020-8-20T08:05:11Z
2020-08-20T06:07:25Z,42.805,6.029,13.2974,4.59974,2470.11,2020-8-20T08:08:15Z
2020-08-20T06:10:29Z,42.805,6.029,13.2974,4.59976,2470.156,2020-8-20T08:11:18Z
2020-08-20T06:13:32Z,42.805,6.029,13.2977,4.59973,2470.11,2020-8-20T08:14:21Z
2020-08-20T06:16:35Z,42.805,6.029,13.2974,4.59975,2470.133,2020-8-20T08:17:25Z
2020-08-20T06:19:38Z,42.805,6.029,13.2974,4.59974,2470.124,2020-8-20T08:20:28Z
2020-08-20T06:22:42Z,42.805,6.029,13.2975,4.59976,2470.156,2020-8-20T08:23:31Z
2020-08-20T06:25:45Z,42.805,6.029,13.2973,4.59976,2470.133,2020-8-20T08:26:35Z
2020-08-20T06:28:48Z,42.805,6.029,13.2971,4.59974,2470.156,2020-8-20T08:29:38Z
2020-08-20T06:31:52Z,42.805,6.029,13.2975,4.59974,2470.133,2020-8-20T08:32:41Z
2020-08-20T06:34:55Z,42.805,6.029,13.2976,4.59974,2470.156,2020-8-20T08:35:44Z
2020-08-20T06:37:58Z,42.805,6.029,13.2974,4.59975,2470.133,2020-8-20T08:38:48Z
2020-08-20T06:41:01Z,42.805,6.029,13.2971,4.59975,2470.156,2020-8-20T08:41:51Z
2020-08-20T06:44:05Z,42.805,6.029,13.2971,4.59976,2470.171,2020-8-20T08:44:54Z
2020-08-20T06:47:08Z,42.805,6.029,13.2973,4.59976,2470.156,2020-8-20T08:47:58Z
2020-08-20T06:50:11Z,42.805,6.029,13.2974,4.59975,2470.156,2020-8-20T08:51:01Z
2020-08-20T06:53:14Z,42.805,6.029,13.2976,4.59974,2470.194,2020-8-20T08:54:04Z
2020-08-20T06:56:18Z,42.805,6.029,13.2974,4.59976,2470.18,2020-8-20T08:57:07Z
2020-08-20T06:59:21Z,42.805,6.029,13.2975,4.59978,2470.194,2020-8-20T09:00:11Z
2020-08-20T07:02:24Z,42.805,6.029,13.2974,4.59974,2470.18,2020-8-20T09:03:14Z
2020-08-20T07:05:27Z,42.805,6.029,13.2971,4.59976,2470.156,2020-8-20T09:06:17Z
2020-08-20T07:08:31Z,42.805,6.029,13.2976,4.59975,2470.171,2020-8-20T09:09:20Z
2020-08-20T07:11:34Z,42.805,6.029,13.2972,4.59974,2470.171,2020-8-20T09:12:24Z
2020-08-20T07:14:37Z,42.805,6.029,13.2974,4.59974,2470.18,2020-8-20T09:15:27Z
2020-08-20T07:17:41Z,42.805,6.029,13.2974,4.59976,2470.203,2020-8-20T09:18:30Z
2020-08-20T07:20:44Z,42.805,6.029,13.2974,4.59976,2470.194,2020-8-20T09:21:34Z
2020-08-20T07:23:47Z,42.805,6.029,13.2976,4.59975,2470.18,2020-8-20T09:24:37Z
2020-08-20T07:26:50Z,42.805,6.029,13.2974,4.59976,2470.156,2020-8-20T09:27:40Z
2020-08-20T07:29:54Z,42.805,6.029,13.2974,4.59976,2470.189,2020-8-20T09:30:43Z
2020-08-20T07:32:57Z,42.805,6.029,13.2970,4.59976,2470.156,2020-8-20T09:33:46Z
2020-08-20T07:36:00Z,42.805,6.029,13.2975,4.59975,2470.194,2020-8-20T09:36:50Z
2020-08-20T07:39:03Z,42.805,6.029,13.2976,4.59975,2470.194,2020-8-20T09:39:53Z
2020-08-20T07:42:07Z,42.805,6.029,13.2972,4.59976,2470.203,2020-8-20T09:42:56Z
2020-08-20T07:45:10Z,42.805,6.029,13.2974,4.59974,2470.18,2020-8-20T09:45:59Z
2020-08-20T07:48:13Z,42.805,6.029,13.2971,4.59976,2470.18,2020-8-20T09:49:03Z
2020-08-20T07:51:16Z,42.805,6.029,13.2976,4.59978,2470.18,2020-8-20T09:52:06Z
2020-08-20T07:54:19Z,42.805,6.029,13.2979,4.59976,2470.203,2020-8-20T09:55:09Z
2020-08-20T07:57:23Z,42.805,6.029,13.2975,4.59975,2470.194,2020-8-20T09:58:12Z
2020-08-20T08:00:26Z,42.805,6.029,13.2976,4.59975,2470.156,2020-8-20T10:01:16Z
2020-08-20T08:03:29Z,42.805,6.029,13.2974,4.59974,2470.194,2020-8-20T10:04:19Z
2020-08-20T08:06:33Z,42.805,6.029,13.2974,4.59976,2470.203,2020-8-20T10:07:22Z
2020-08-20T08:09:36Z,42.805,6.029,13.2973,4.59976,2470.156,2020-8-20T10:10:25Z
2020-08-20T08:12:39Z,42.805,6.029,13.2974,4.59976,2470.18,2020-8-20T10:13:29Z
2020-08-20T08:15:43Z,42.805,6.029,13.2974,4.59975,2470.194,2020-8-20T10:16:32Z
2020-08-20T08:18:46Z,42.805,6.029,13.2974,4.59975,2470.194,2020-8-20T10:19:35Z
2020-08-20T08:21:49Z,42.805,6.029,13.2977,4.59975,2470.171,2020-8-20T10:22:38Z
2020-08-20T08:24:52Z,42.805,6.029,13.2972,4.59973,2470.194,2020-8-20T10:25:42Z
2020-08-20T08:27:56Z,42.805,6.029,13.2975,4.59976,2470.156,2020-8-20T10:28:45Z
2020-08-20T08:30:59Z,42.805,6.029,13.2976,4.59977,2470.194,2020-8-20T10:31:48Z
2020-08-20T08:34:02Z,42.805,6.029,13.2976,4.59975,2470.156,2020-8-20T10:34:52Z
2020-08-20T08:37:05Z,42.805,6.029,13.2975,4.59975,2470.194,2020-8-20T10:37:55Z
2020-08-20T08:40:09Z,42.805,6.029,13.2974,4.59975,2470.171,2020-8-20T10:40:58Z
2020-08-20T08:43:12Z,42.805,6.029,13.2973,4.59976,2470.133,2020-8-20T10:44:01Z
2020-08-20T08:46:15Z,42.805,6.029,13.2971,4.59976,2470.156,2020-8-20T10:47:05Z
2020-08-20T08:49:18Z,42.805,6.029,13.2975,4.59975,2470.171,2020-8-20T10:50:08Z
2020-08-20T08:52:21Z,42.805,6.029,13.2974,4.59975,2470.18,2020-8-20T10:53:11Z
2020-08-20T08:55:25Z,42.805,6.029,13.2974,4.59975,2470.18,2020-8-20T10:56:14Z
2020-08-20T08:58:28Z,42.805,6.029,13.2970,4.59974,2470.18,2020-8-20T10:59:18Z
2020-08-20T09:01:31Z,42.805,6.029,13.2975,4.59974,2470.18,2020-8-20T11:02:21Z
2020-08-20T09:04:35Z,42.805,6.029,13.2975,4.59974,2470.147,2020-8-20T11:05:24Z
2020-08-20T09:07:38Z,42.805,6.029,13.2971,4.59974,2470.133,2020-8-20T11:08:27Z
2020-08-20T09:10:41Z,42.805,6.029,13.2974,4.59975,2470.133,2020-8-20T11:11:31Z
2020-08-20T09:13:45Z,42.805,6.029,13.2972,4.59975,2470.133,2020-8-20T11:14:34Z
2020-08-20T09:16:48Z,42.805,6.029,13.2974,4.59976,2470.18,2020-8-20T11:17:38Z
2020-08-20T09:19:51Z,42.805,6.029,13.2973,4.59974,2470.156,2020-8-20T11:20:41Z
2020-08-20T09:22:55Z,42.805,6.029,13.2974,4.59975,2470.156,2020-8-20T11:23:44Z
2020-08-20T09:25:58Z,42.805,6.029,13.2974,4.59974,2470.171,2020-8-20T11:26:47Z
2020-08-20T09:29:01Z,42.805,6.029,13.2973,4.59974,2470.143,2020-8-20T11:29:51Z
2020-08-20T09:32:04Z,42.805,6.029,13.2974,4.59975,2470.133,2020-8-20T11:32:54Z
2020-08-20T09:35:07Z,42.805,6.029,13.2974,4.59976,2470.18,2020-8-20T11:35:57Z
2020-08-20T09:38:11Z,42.805,6.029,13.2971,4.59975,2470.133,2020-8-20T11:39:00Z
2020-08-20T09:41:14Z,42.805,6.029,13.2974,4.59976,2470.156,2020-8-20T11:42:03Z
2020-08-20T09:44:17Z,42.805,6.029,13.2972,4.59974,2470.133,2020-8-20T11:45:07Z
2020-08-20T09:47:20Z,42.805,6.029,13.2972,4.59975,2470.133,2020-8-20T11:48:10Z
2020-08-20T09:50:24Z,42.805,6.029,13.2976,4.59975,2470.133,2020-8-20T11:51:13Z
2020-08-20T09:53:27Z,42.805,6.029,13.2976,4.59974,2470.11,2020-8-20T11:54:16Z
2020-08-20T09:56:30Z,42.805,6.029,13.2973,4.59975,2470.11,2020-8-20T11:57:20Z
2020-08-20T09:59:33Z,42.805,6.029,13.2974,4.59974,2470.133,2020-8-20T12:00:23Z
2020-08-20T10:02:37Z,42.805,6.029,13.2974,4.59976,2470.119,2020-8-20T12:03:26Z
2020-08-20T10:05:40Z,42.805,6.029,13.2971,4.59976,2470.133,2020-8-20T12:06:29Z
2020-08-20T10:08:43Z,42.805,6.029,13.2974,4.59977,2470.11,2020-8-20T12:09:33Z
2020-08-20T10:11:46Z,42.805,6.029,13.2974,4.59974,2470.1,2020-8-20T12:12:36Z
2020-08-20T10:14:50Z,42.805,6.029,13.2974,4.59974,2470.147,2020-8-20T12:15:39Z
2020-08-20T10:17:53Z,42.805,6.029,13.2976,4.59976,2470.124,2020-8-20T12:18:42Z
2020-08-20T10:20:56Z,42.805,6.029,13.2973,4.59975,2470.087,2020-8-20T12:21:46Z
2020-08-20T10:23:59Z,42.805,6.029,13.2975,4.59975,2470.124,2020-8-20T12:24:49Z
2020-08-20T10:27:03Z,42.805,6.029,13.2971,4.59975,2470.087,2020-8-20T12:27:52Z
2020-08-20T10:30:06Z,42.805,6.029,13.2971,4.59976,2470.087,2020-8-20T12:30:56Z
2020-08-20T10:33:09Z,42.805,6.029,13.2974,4.59975,2470.1,2020-8-20T12:33:59Z
2020-08-20T10:36:12Z,42.805,6.029,13.2972,4.59976,2470.11,2020-8-20T12:37:02Z
2020-08-20T10:39:16Z,42.805,6.029,13.2973,4.59975,2470.087,2020-8-20T12:40:05Z
2020-08-20T10:42:19Z,42.805,6.029,13.2976,4.59976,2470.063,2020-8-20T12:43:09Z
2020-08-20T10:45:22Z,42.805,6.029,13.2974,4.59974,2470.063,2020-8-20T12:46:12Z
2020-08-20T10:48:25Z,42.805,6.029,13.2974,4.59974,2470.1,2020-8-20T12:49:15Z
2020-08-20T10:51:29Z,42.805,6.029,13.2973,4.59976,2470.1,2020-8-20T12:52:18Z
2020-08-20T10:54:32Z,42.805,6.029,13.2976,4.59977,2470.073,2020-8-20T12:55:21Z
2020-08-20T10:57:35Z,42.805,6.029,13.2976,4.59975,2470.063,2020-8-20T12:58:25Z
2020-08-20T11:00:38Z,42.805,6.029,13.2975,4.59977,2470.1,2020-8-20T13:01:28Z
2020-08-20T11:03:42Z,42.805,6.029,13.2974,4.59975,2470.077,2020-8-20T13:04:31Z
2020-08-20T11:06:45Z,42.805,6.029,13.2975,4.59976,2470.017,2020-8-20T13:07:34Z
2020-08-20T11:09:48Z,42.805,6.029,13.2974,4.59976,2470.077,2020-8-20T13:10:38Z
2020-08-20T11:12:51Z,42.805,6.029,13.2973,4.59977,2470.04,2020-8-20T13:13:41Z
2020-08-20T11:15:55Z,42.805,6.029,13.2976,4.59974,2470.063,2020-8-20T13:16:44Z
2020-08-20T11:18:58Z,42.805,6.029,13.2976,4.59976,2470.063,2020-8-20T13:19:47Z
2020-08-20T11:22:01Z,42.805,6.029,13.2975,4.59977,2470.04,2020-8-20T13:22:51Z
2020-08-20T11:25:04Z,42.805,6.029,13.2974,4.59974,2470.063,2020-8-20T13:25:54Z
2020-08-20T11:28:08Z,42.805,6.029,13.2974,4.59978,2470.04,2020-8-20T13:28:57Z
2020-08-20T11:31:11Z,42.805,6.029,13.2975,4.59976,2470.04,2020-8-20T13:32:00Z
2020-08-20T11:34:14Z,42.805,6.029,13.2975,4.59976,2470.077,2020-8-20T13:35:04Z
2020-08-20T11:37:17Z,42.805,6.029,13.2974,4.59976,2470.053,2020-8-20T13:38:07Z
2020-08-20T11:40:21Z,42.805,6.029,13.2972,4.59976,2470.077,2020-8-20T13:41:10Z
2020-08-20T11:43:24Z,42.805,6.029,13.2976,4.59976,2470.04,2020-8-20T13:44:14Z
2020-08-20T11:46:27Z,42.805,6.029,13.2974,4.59975,2470.017,2020-8-20T13:47:17Z
2020-08-20T11:49:31Z,42.805,6.029,13.2977,4.59976,2470.04,2020-8-20T13:50:20Z
2020-08-20T11:52:34Z,42.805,6.029,13.2972,4.59976,2470.04,2020-8-20T13:53:24Z
2020-08-20T11:55:37Z,42.805,6.029,13.2977,4.59975,2470.017,2020-8-20T13:56:27Z
2020-08-20T11:58:40Z,42.805,6.029,13.2977,4.59976,2470.04,2020-8-20T13:59:30Z
2020-08-20T12:01:44Z,42.805,6.029,13.2975,4.59976,2470.04,2020-8-20T14:02:33Z
2020-08-20T12:04:47Z,42.805,6.029,13.2973,4.59975,2470.04,2020-8-20T14:05:36Z
2020-08-20T12:07:50Z,42.805,6.029,13.2974,4.59976,2470.026,2020-8-20T14:08:40Z
2020-08-20T12:10:53Z,42.805,6.029,13.2972,4.59976,2470.077,2020-8-20T14:11:43Z
2020-08-20T12:13:57Z,42.805,6.029,13.2974,4.59976,2470.007,2020-8-20T14:14:46Z
2020-08-20T12:17:00Z,42.805,6.029,13.2974,4.59975,2470.026,2020-8-20T14:17:49Z
2020-08-20T12:20:03Z,42.805,6.029,13.2974,4.59975,2470.017,2020-8-20T14:20:53Z
2020-08-20T12:23:06Z,42.805,6.029,13.2979,4.59975,2470.053,2020-8-20T14:23:56Z
2020-08-20T12:26:09Z,42.805,6.029,13.2973,4.59975,2470.03,2020-8-20T14:26:59Z
2020-08-20T12:29:13Z,42.805,6.029,13.2974,4.59975,2469.993,2020-8-20T14:30:02Z
2020-08-20T12:32:16Z,42.805,6.029,13.2971,4.59975,2470.03,2020-8-20T14:33:05Z
2020-08-20T12:35:19Z,42.805,6.029,13.2975,4.59976,2470.017,2020-8-20T14:36:09Z
2020-08-20T12:38:22Z,42.805,6.029,13.2977,4.59976,2470.04,2020-8-20T14:39:12Z
2020-08-20T12:41:26Z,42.805,6.029,13.2979,4.59976,2470.017,2020-8-20T14:42:15Z
2020-08-20T12:44:29Z,42.805,6.029,13.2974,4.59975,2470.03,2020-8-20T14:45:18Z
2020-08-20T12:47:32Z,42.805,6.029,13.2973,4.59974,2469.993,2020-8-20T14:48:21Z
2020-08-20T12:50:35Z,42.805,6.029,13.2976,4.59976,2470.017,2020-8-20T14:51:25Z
2020-08-20T12:53:38Z,42.805,6.029,13.2976,4.59976,2470.007,2020-8-20T14:54:28Z
2020-08-20T12:56:42Z,42.805,6.029,13.2974,4.59976,2470.04,2020-8-20T14:57:31Z
2020-08-20T12:59:45Z,42.805,6.029,13.2974,4.59976,2470.053,2020-8-20T15:00:35Z
2020-08-20T13:02:48Z,42.805,6.029,13.2973,4.59978,2469.993,2020-8-20T15:03:38Z
2020-08-20T13:05:52Z,42.805,6.029,13.2975,4.59974,2469.993,2020-8-20T15:06:41Z
2020-08-20T13:08:55Z,42.805,6.029,13.2974,4.59975,2470.04,2020-8-20T15:09:44Z
2020-08-20T13:11:58Z,42.805,6.029,13.2975,4.59978,2470.007,2020-8-20T15:12:48Z
2020-08-20T13:15:01Z,42.805,6.029,13.2971,4.59974,2470.007,2020-8-20T15:15:51Z
2020-08-20T13:18:05Z,42.805,6.029,13.2973,4.59975,2469.993,2020-8-20T15:18:54Z
2020-08-20T13:21:08Z,42.805,6.029,13.2972,4.59974,2469.984,2020-8-20T15:21:58Z
2020-08-20T13:24:11Z,42.805,6.029,13.2969,4.59976,2469.993,2020-8-20T15:25:01Z
2020-08-20T13:27:15Z,42.805,6.029,13.2975,4.59976,2470.007,2020-8-20T15:28:04Z
2020-08-20T13:30:18Z,42.805,6.029,13.2973,4.59976,2469.984,2020-8-20T15:31:08Z
2020-08-20T13:33:21Z,42.805,6.029,13.2974,4.59975,2470.007,2020-8-20T15:34:11Z
2020-08-20T13:36:24Z,42.805,6.029,13.2974,4.59975,2469.97,2020-8-20T15:37:14Z
2020-08-20T13:39:28Z,42.805,6.029,13.2976,4.59975,2469.984,2020-8-20T15:40:17Z
2020-08-20T13:42:31Z,42.805,6.029,13.2974,4.59975,2469.993,2020-8-20T15:43:21Z
2020-08-20T13:45:34Z,42.805,6.029,13.2974,4.59974,2469.947,2020-8-20T15:46:24Z
2020-08-20T13:48:38Z,42.805,6.029,13.2972,4.59976,2469.993,2020-8-20T15:49:27Z
2020-08-20T13:51:41Z,42.805,6.029,13.2974,4.59975,2469.97,2020-8-20T15:52:31Z
2020-08-20T13:54:44Z,42.805,6.029,13.2974,4.59975,2469.984,2020-8-20T15:55:34Z
2020-08-20T13:57:47Z,42.805,6.029,13.2974,4.59976,2469.97,2020-8-20T15:58:37Z
2020-08-20T14:00:51Z,42.805,6.029,13.2974,4.59976,2469.96,2020-8-20T16:01:40Z
2020-08-20T14:03:54Z,42.805,6.029,13.2974,4.59977,2469.984,2020-8-20T16:04:43Z
2020-08-20T14:06:57Z,42.805,6.029,13.2976,4.59976,2469.984,2020-8-20T16:07:47Z
2020-08-20T14:10:00Z,42.805,6.029,13.2976,4.59974,2469.979,2020-8-20T16:10:50Z
2020-08-20T14:13:04Z,42.805,6.029,13.2975,4.59976,2470.007,2020-8-20T16:13:53Z
2020-08-20T14:16:07Z,42.805,6.029,13.2973,4.59976,2469.984,2020-8-20T16:16:56Z
2020-08-20T14:19:11Z,42.805,6.029,13.2979,4.59976,2469.96,2020-8-20T16:20:00Z
2020-08-20T14:22:14Z,42.805,6.029,13.2976,4.59976,2469.97,2020-8-20T16:23:03Z
2020-08-20T14:25:17Z,42.805,6.029,13.2976,4.59975,2469.993,2020-8-20T16:26:07Z
2020-08-20T14:28:20Z,42.805,6.029,13.2974,4.59978,2469.984,2020-8-20T16:29:10Z
2020-08-20T14:31:24Z,42.805,6.029,13.2973,4.59976,2469.97,2020-8-20T16:32:13Z
2020-08-20T14:34:27Z,42.805,6.029,13.2975,4.59976,2469.937,2020-8-20T16:35:17Z
2020-08-20T14:37:30Z,42.805,6.029,13.2979,4.59978,2469.97,2020-8-20T16:38:20Z
2020-08-20T14:40:34Z,42.805,6.029,13.2978,4.59976,2469.923,2020-8-20T16:41:23Z
2020-08-20T14:43:37Z,42.805,6.029,13.2978,4.59976,2469.947,2020-8-20T16:44:27Z
2020-08-20T14:46:40Z,42.805,6.029,13.2974,4.59975,2469.993,2020-8-20T16:47:30Z
2020-08-20T14:49:43Z,42.805,6.029,13.2979,4.59975,2469.984,2020-8-20T16:50:33Z
2020-08-20T14:52:47Z,42.805,6.029,13.2971,4.59976,2469.97,2020-8-20T16:53:36Z
2020-08-20T14:55:50Z,42.805,6.029,13.2974,4.59978,2469.96,2020-8-20T16:56:40Z
2020-08-20T14:58:53Z,42.805,6.029,13.2978,4.59976,2469.993,2020-8-20T16:59:43Z
2020-08-20T15:01:57Z,42.805,6.029,13.2977,4.59975,2469.993,2020-8-20T17:02:46Z
2020-08-20T15:05:00Z,42.805,6.029,13.2976,4.59977,2469.993,2020-8-20T17:05:50Z
2020-08-20T15:08:03Z,42.805,6.029,13.2976,4.59976,2469.984,2020-8-20T17:08:53Z
2020-08-20T15:11:07Z,42.805,6.029,13.2975,4.59975,2469.97,2020-8-20T17:11:56Z
2020-08-20T15:14:10Z,42.805,6.029,13.2974,4.59976,2469.984,2020-8-20T17:14:59Z